Date,TemperatureHighF,TemperatureAvgF,TemperatureLowF,DewpointHighF,DewpointAvgF,DewpointLowF,HumidityHigh,HumidityAvg,HumidityLow,PressureMaxIn,PressureMinIn,WindSpeedMaxMPH,WindSpeedAvgMPH,GustSpeedMaxMPH,PrecipitationSumIn
2012-12-1,69,62,46,41,35,24,68,36,33,29.54,29.31,0,-999,0,0.00
2012-12-2,68,56,44,46,36,31,82,49,33,29.54,29.39,0,-999,0,0.00
2012-12-3,73,64,53,41,36,27,40,35,32,29.54,29.28,0,-999,0,0.08
2012-12-4,61,48,35,33,23,13,40,37,34,29.81,29.54,0,-999,0,0.08
2012-12-5,59,44,29,31,20,9,45,39,35,29.84,29.57,0,-999,0,0.00
2012-12-6,57,48,42,30,23,19,41,38,35,29.57,29.39,0,-999,0,0.00
2012-12-7,53,48,44,27,24,21,43,39,36,29.42,29.34,0,-999,0,0.00
2012-12-8,48,42,38,27,21,18,56,43,37,29.51,29.36,0,-999,0,0.00
2012-12-9,45,38,23,41,23,4,95,56,39,29.54,29.31,0,-999,0,0.00
2012-12-10,33,24,17,12,4,-1,44,42,41,29.57,29.51,0,-999,0,0.00
2012-12-11,44,28,18,20,8,-1,44,41,38,29.66,29.51,0,-999,0,0.00
2012-12-12,50,36,26,25,14,6,42,40,37,29.75,29.63,0,-999,0,0.00
2012-12-13,58,43,35,31,19,13,40,38,35,29.66,29.54,0,-999,0,0.00
2012-12-14,54,45,36,28,21,14,52,38,36,29.60,29.22,0,-999,0,0.41
2012-12-15,56,49,39,30,26,22,56,42,36,29.25,29.04,0,-999,0,0.50
2012-12-16,41,37,32,40,26,19,98,64,46,29.28,29.16,0,-999,0,0.00
2012-12-17,45,37,34,30,22,14,77,55,38,29.25,29.19,0,-999,0,0.00
2012-12-18,58,43,33,30,20,12,54,40,35,29.39,29.10,0,-999,0,0.00
2012-12-19,54,40,32,46,20,12,76,43,38,29.42,28.86,0,-999,0,0.04
2012-12-20,49,30,22,36,14,3,85,53,41,29.66,28.80,0,-999,0,0.04
2012-12-21,38,25,15,15,5,-2,45,42,39,29.81,29.66,0,-999,0,0.00
2012-12-22,53,33,15,27,12,-1,49,42,36,29.69,29.36,0,-999,0,0.04
2012-12-23,38,30,24,15,10,5,47,42,39,29.45,29.34,0,-999,0,0.00
2012-12-24,27,22,18,7,3,-1,45,43,42,29.57,29.36,0,-999,0,0.00
2012-12-25,24,21,15,5,2,-3,45,43,42,29.72,29.54,0,-999,0,0.00
2012-12-26,27,20,14,7,1,-4,44,43,41,29.66,29.57,0,-999,0,0.00
2012-12-27,38,27,15,16,7,-3,47,42,39,29.60,29.39,0,-999,0,0.00
2012-12-28,34,31,22,13,10,3,43,41,40,29.48,29.36,0,-999,0,0.00
2012-12-29,34,25,21,13,6,2,43,42,40,29.72,29.48,0,-999,0,0.00
2012-12-30,46,33,21,21,11,2,43,41,38,29.78,29.54,0,-999,0,0.00
2012-12-31,37,33,24,23,15,5,68,48,40,29.60,29.45,0,-999,0,0.12